Other Public Products
Issued by NWS Charleston, SC

Current Version | Previous Version | Graphics & Text | Print | Product List | Glossary On
Versions: 1 2 3 4 5 6 7 8 9 10 11 12 13 14 15 16 17 18 19 20 21 22 23 24 25 26 27 28 29 30 31 32 33 34 35 36 37 38 39 40 41 42 43 44 45 46 47 48 49 50
000 FPUS82 KCHS 081712 OPUCHS TEST...KCHS/KSAV Gateway Observations...TEST National Weather Service Charleston SC 1200 PM EST THU DEC 08 2016 NOTE: "fair" indicates few or no clouds below 12,000 feet with no significant weather and/or obstructions to visibility. SCZ050-WAZ558-NCZ071-TXZ119-213-PAZ071-DCZ001-FLZ074-172-MI076- NYZ176-178-MAZ016-IL014-TNZ027-NJZ106-GAZ044-MD014-081800- ...Gateway Observations for Charleston International... CITY SKY/WX TMP DP RH WIND PRES REMARKS Chas Airport MOSUNNY 63 48 58 NW10 30.09F Seattle MOCLDY 34 11 38 E18G26 30.08F WCI 23 Charlotte CLOUDY 51 33 50 NW9G20 30.13F Dallas DFW CLOUDY 33 18 53 N17 30.66R WCI 22 Dallas Love CLOUDY 35 20 54 N15G22 30.67S WCI 25 Philladelphia CLOUDY 44 27 51 SW10 29.97F Wash National CLOUDY 47 23 38 W8 30.03F Baltimore CLOUDY 44 20 38 W13 30.00F Miami PTSUNNY 79 73 82 CALM 30.11F Detroit LGT SNOW 27 21 78 SW20 30.10S WCI 13 Newark CLOUDY 43 25 49 SW12 29.92F Laguardia CLOUDY 45 22 40 W12 29.92F J F K CLOUDY 44 26 49 W15 29.94F Boston Logan CLOUDY 41 33 73 SW10 29.83F Ft. Lauderdale CLOUDY 81 73 76 W3 30.09F Chicago O`Hare PTSUNNY 19 10 68 W20 30.27S WCI 3 Chicago Midway FLURRIES 19 9 65 W15G25 30.29S WCI 5 Houston Bush CLOUDY 47 40 76 N22 30.44R Houston Hobby CLOUDY 48 42 80 N23 30.41S Nashville CLOUDY 38 16 40 NW14 30.43F WCI 30 Atlanta CLOUDY 47 23 38 N17G28 30.28R $$ GAZ044-118-TXZ119-213-NCZ071-DCZ001-MDZ014-506-PAZ021-071-NJZ106- NYZ176-178-MAZ106-OHZ011-021-055-MIZ076-KYZ091-ILZ014-INZ047- MNZ060-081800- ...Gateway Observations for Savannah International... CITY SKY/WX TMP DP RH WIND PRES REMARKS Savannah Arpt PTSUNNY 62 41 46 W12 30.14F Atlanta CLOUDY 47 23 38 N17G28 30.28R Charlotte CLOUDY 51 33 50 NW9G20 30.13F Dallas DFW CLOUDY 33 18 53 N17 30.66R WCI 22 Houston Bush CLOUDY 47 40 76 N22 30.44R Wash National CLOUDY 47 23 38 W8 30.03F Wash Dulles PTSUNNY 44 24 45 W10 30.02F Baltimore CLOUDY 44 20 38 W13 30.00F Philadelphia CLOUDY 44 27 51 SW10 29.97F Newark CLOUDY 43 25 49 SW12 29.92F Laguardia CLOUDY 45 22 40 W12 29.92F J F K CLOUDY 44 26 49 W15 29.94F Boston CLOUDY 41 33 73 SW10 29.83F Pittsburg CLOUDY 31 17 56 W15G23 30.08S WCI 20 Akron FLURRIES 25 15 66 W10G22 30.13S WCI 15 Cleveland FLURRIES 28 16 60 W20G30 30.15S WCI 15 Cincinnati MOSUNNY 30 14 51 W16G25 30.28F WCI 19 Columbus N/A 30 18 60 W20 30.23S WCI 17 Detroit LGT SNOW 27 21 78 SW20 30.10S WCI 13 Chicago O`Hare PTSUNNY 19 10 68 W20 30.27S WCI 3 Minneapolis CLOUDY 23 13 65 NW20G29 30.36R WCI 8 Indianapolis FLURRIES 22 13 68 W22 30.34S WCI 6 $$

USA.gov is the U.S. government's official web portal to all federal, state and local government web resources and services.